COSMOS 737

Satellite information

Favourite Embed

Satellite Type and Status

PAYLOADIN ORBIT

Key statistics

Satellite COSMOS 737 at a glance.

Uptime

18247

Days in orbit

Revolutions

≈ 12.4

Per day

Orbit

LEO

Low Earth Orbit

Inclination

74.0

Latest

Satellite identification and parameters

Extended collection of information and parameters for COSMOS 737.

Object identification

Identified? True

Debris? False

Object name: COSMOS 737

International designator: 1975-045F

Object number (NORAD): 7826

Object ID (CCSDS): 7826

Country: COMMONWEALTH OF INDEPENDENT STATES (CIS)

Current information (Y/N): Y

RCS size: MEDIUM

Orbital parameters

Period: 115.966 minutes

Inclination: 74.0139 deg

SMA: 7877.379 km

Apoapsis: 1529.075 km

Periapsis: 1469.414 km

RAAN: 132.379 deg

Eccentricy: 0.0037869

Argument of periapsis: 290.5557 deg

Mean anomaly: 243.1439 deg

Mean motion: 12.41738425 rev/day

Mean motion (dot): 0.00000002 rev/day2

B* drag term: 0.00013063 1/REarth

Two-line elements (TLE)

Creation date: May 11, 2025, 2:40 a.m.

Reference frame: TEME

Reference center: EARTH

Epoch: May 10, 2025, 6 p.m. UTC

TLE line 0: 0 COSMOS 737

TLE line 1: 1 07826U 75045F 25130.75067551 .00000002 00000-0 13063-3 0 9999

TLE line 2: 2 07826 74.0139 132.3790 0037869 290.5557 243.1439 12.41738425264386

Live tracking on map

Real-time ground track for satellite COSMOS 737.

In-orbit conjunctions

There are no conjunctions computed for COSMOS 737, at the moment. Check back to stay up to date, as we update our databases every day.

Go to all conjunctions

Associated space launch

Military communications satellites

COSMOS 737 was lifted into orbit during the mission ‘Kosmos-3M | Strela-1M 89-96’, on board a Kosmos-3M space rocket.

The launch took place on May 28, 1975, 12:25 a.m. from 132/1 (132L).

For more information about the launch, click the button.

Launch to space Kosmos-3M | Strela-1M 89-96
Kosmos-3M | Strela-1M 89-96

Agency: N/A

Status: Launch Successful

Launch date: May 28, 1975, 12:25 a.m. UTC

Rocket: Kosmos-3M

Launch pad: 132/1 (132L)

Location: Plesetsk Cosmodrome, Russian Federation

...

Latest news about this satellite

There are no fresh news available about this satellite. Check back as we update our databases every day.


Newsletter sign-up

Weekly statistics, charts and insights to help you stay on top of the space industry.